Regional Weather Roundup
Issued by NWS Cleveland, OH

Home | Current Version | Previous Version | Graphics & Text | Print | Product List | Glossary On
Versions: 1 2 3 4 5 6 7 8 9 10 11 12 13 14 15 16 17 18 19 20 21 22 23 24 25 26 27 28 29 30 31 32 33 34 35 36 37 38 39 40 41 42 43 44 45 46 47 48 49 50
000
ASUS41 KCLE 232200
RWRCLE
OHIO REGIONAL WEATHER ROUNDUP
NATIONAL WEATHER SERVICE WILMINGTON, OH
600 PM EDT SUN APR 23 2017

NOTE: "FAIR" INDICATES FEW OR NO CLOUDS BELOW 12,000 FEET WITH NO
SIGNIFICANT WEATHER AND/OR OBSTRUCTIONS TO VISIBILITY.

OHZ001>008-015>018-024>027-034-035-043-044-232300-
   NORTHWEST OHIO

CITY           SKY/WX    TMP DP  RH WIND       PRES   REMARKS
DEFIANCE       FAIR      66  28  24 NE10      30.03F
FINDLAY        FAIR      67  29  24 NE16      30.01S
TOLEDO EXPRESS FAIR      67  21  17 NE7       30.04F
TOLEDO EXEC    FAIR      65  27  23 N7        30.06S
LIMA           FAIR      68  32  26 E13       30.01S
$$

OHZ009>014-019>023-028>033-038-089-232300-
   NORTHEAST OHIO

CITY           SKY/WX    TMP DP  RH WIND       PRES   REMARKS
CLE-HOPKINS    PTSUNNY   58  34  40 NE12      30.07S
CLE-LAKEFRONT  FAIR      52  41  66 NE13      30.05S
CUY CO. ARPT   PTSUNNY   59  37  44 N12       30.06R
LORAIN-ELYRIA  FAIR      58  33  39 N10       30.05S
ASHTABULA      FAIR      60  33  36 N8        30.07R
AKRON-CANTON   PTSUNNY   67  32  27 E8        30.02S
WOOSTER        NOT AVBL
MANSFIELD      FAIR      65  33  30 NE8       30.02S
YOUNGSTOWN     PTSUNNY   68  31  25 N8        30.02F
$$

OHZ042-051>053-060>062-070>072-077>081-232300-
  SOUTHWEST OHIO

CITY           SKY/WX    TMP DP  RH WIND       PRES   REMARKS
CINC-COVINGTON PTSUNNY   63  34  33 NE13      29.95S
CINC-LUNKEN    FAIR      63  43  48 NE9       29.96S
HAMILTON       FAIR      65  38  36 E10       29.97F
DAYTON         NOT AVBL
WRIGHT-PAT AFB FAIR      67  30  24 NE10      29.97S
DAYTON GENERAL FAIR      65  34  31 E10       29.96F
WILMINGTON     FAIR      62  38  40 NE10      29.96F
$$

OHZ036-037-039>041-045>050-054>059-063>069-073>076-082>088-232300-
  CENTRAL AND SOUTHEAST OHIO

CITY           SKY/WX    TMP DP  RH WIND       PRES   REMARKS
COLUMBUS       PTSUNNY   68  33  27 E10       29.98R
OSU AIRPORT    FAIR      67  33  28 NE12      29.98S
BOLTON FIELD   SUNNY     66  34  30 E9        29.99S
RICKENBACK AFB NOT AVBL
NEWARK         FAIR      68  31  25 E9        29.98S
MARION         FAIR      66  32  28 NE14      30.01R
LANCASTER      FAIR      67  35  30 E8        29.99R
ZANESVILLE     FAIR      67  32  27 E8        29.99S
NEW PHILLY     FAIR      69  32  25 VRB6      30.00S
$$




USA.gov is the U.S. government's official web portal to all federal, state and local government web resources and services.